Location: Kielce
(50.8833°N, 20.6167°E)
Time: 21:25:20
(UTC+02:00)

SR - Pass Details

Date: 27 April 2021
Orbit: 573 x 882 km, 66.7° (Epoch: 09 May)

Event Time Altitude Azimuth Distance (km) Brightness Sun altitude
Rises 14:46:50 0° 321° (NW) 3,478 ? 44.6°
Reaches altitude 10° 14:49:24 10° 320° (NW) 2,518 ? 44.3°
Maximum altitude 14:55:14 72° 237° (WSW) 876 ? 43.6°
Drops below altitude 10° 15:00:39 10° 154° (SSE) 2,347 ? 42.9°
Sets 15:02:58 0° 152° (SSE) 3,225 ? 42.6°
